Regional Weather Roundup
Issued by NWS Newport/Morehead, NC

Current Version | Previous Version | Graphics & Text | Print | Product List | Glossary On
Versions: 1 2 3 4 5 6 7 8 9 10 11 12 13 14 15 16 17 18 19 20 21 22 23 24 25 26 27 28 29 30 31 32 33 34 35 36 37 38 39 40 41 42 43 44 45 46 47 48 49 50
000 ASUS42 KMHX 031825 RWRMHX WEATHER ROUNDUP FOR EASTERN NORTH CAROLINA NATIONAL WEATHER SERVICE NEWPORT/MOREHEAD CITY NC 200 PM EDT WED JUN 03 2015 NOTE: "FAIR" INDICATES FEW OR NO CLOUDS BELOW 12,000 FEET WITH NO SIGNIFICANT WEATHER AND/OR OBSTRUCTIONS TO VISIBILITY NCZ015>017-031-032-045>047-102-103-031900- NORTH COAST CITY SKY/WX TMP DP RH WIND PRES REMARKS EDENTON CLOUDY 71 68 89 NE6 30.06F ELIZABETH CITY CLOUDY 71 67 87 N8 30.06F KITTY HAWK N/A 72 70 93 N7 30.03F MANTEO CLOUDY 75 69 79 N7 30.04F $$ NCZ045>047-081-094-103-104-031900- CENTRAL COAST CITY SKY/WX TMP DP RH WIND PRES REMARKS FRISCO CLOUDY 77 67 71 NE8 30.04F SWANQUARTER N/A 77 N/A N/A NE7 30.00S $$ NCZ095-097-098-100-101-031900- SOUTHERN COAST CITY SKY/WX TMP DP RH WIND PRES REMARKS BEAUFORT CLOUDY 79 69 71 NE7 30.03S CEDAR ISLAND N/A 77 N/A N/A E12 30.06S JACKSONVILLE LGT RAIN 74 68 81 CALM 30.02F PINEY ISLAND CLOUDY N/A N/A N/A NE9 30.02F WILMINGTON LGT RAIN 73 69 87 E6 30.02F $$ NCZ011>013-027>030-043-044-078>080-089-090>093-098-031900- COASTAL PLAIN CITY SKY/WX TMP DP RH WIND PRES REMARKS AHOSKIE CLOUDY 67 65 91 N8 30.08F CLINTON RAIN 73 69 89 CALM 30.04F ELIZABETHTOWN DRIZZLE 73 67 80 CALM 30.03F GOLDSBORO CLOUDY 73 68 83 S3 30.02F GREENVILLE CLOUDY 73 70 88 NE10 30.06F HAVELOCK RAIN 79 67 66 E10 30.03F KENANSVILLE CLOUDY 71 67 86 CALM 30.05S KINSTON LGT RAIN 73 68 83 E3 30.05S NEW BERN CLOUDY 77 68 73 VRB6 30.04F RICHLANDS CLOUDY 72 66 83 CALM 30.03F ROCKY MOUNT CLOUDY 72 68 87 N10 30.06F WASHINGTON CLOUDY 73 67 83 NE6 30.04F WHITEVILLE DRIZZLE 73 65 78 E5 30.03S $$ AMZ130-135-150-152-154-156-158-170-250-252-270-ANZ085-086-088-633-658-670-031900- MARINE OBSERVATIONS STATION/POSITION TIME TEMP WIND PRES WAVE SWELL AIR SEA DIR/SP/G HT/PER HT/PER (UTC) (F) (DEG/KT/KT) (MB) (FT/S) (FT/S) CHESAPEAKE LIGHT 1800 66 30/ 21/ 23 1018.1 64 E VA BEACH 1750 74 75 50/ 6/ 8 1017.2 5/ 8 5/ 8 DUCK 1800 65 59 340/ 14/ 15 1016.4 2 E DUCK 1711 72 N/A 4/ 7 OREGON INLET 1800 72 69 10/ 8/ 12 1017.1 13E OREGON INLT 1800 77 N/A 4/ 7 HATTERAS CG 1800 76 77 30/ 7/ 9 1016.4 DIAMOND BUOY 1750 75 81 30/ 10/ 12 1017.1 3/ 7 2/ 7 CAPE LOOKOUT 1800 75 60/ 8/ 9 1016.7 BEAUFORT LAB 1800 77 78 60/ 6/ 8 1015.9 30 SE NEW RVR IN NOT AVBL 27 SE WRIGHTSVLE 1800 77 120/ 14/ 16 N/A 5 SE WRIGHTSVLE 1708 74 78 110/ 6/ 10 1016.8 225 S CAPE HAT 1750 77 76 150/ 8/ 10 1017.2 3/ 8 3/ 8 41 SE CHARLESTON 1750 70 79 20/ 6/ 8 1016.6 2/ 8 2/ 8 $$

USA.gov is the U.S. government's official web portal to all federal, state and local government web resources and services.